Fryeburg, ME

10:21 AM EDT on April 28, 2017 (GMT -0400)
Eastern Slopes Regional

Weather History for KIZG - May, 2012

Change the Weather History Date:

Wednesday, May 30, 2012

  Actual Average Record
Temperature  
Mean Temperature 66 °F -  
Max Temperature 79 °F 68 °F 90 °F (1999)
Min Temperature 55 °F 42 °F 35 °F (2008)
Cooling Degree Days 1    
Growing Degree Days 16 (Base 50)    
Moisture  
Dew Point 59 °F    
Average Humidity 90    
Maximum Humidity 100    
Minimum Humidity 50    
Precipitation  
Precipitation 0.02 in - - ()
Sea Level Pressure  
Sea Level Pressure 29.72 in    
Wind  
Wind Speed 3 mph (SSE)    
Max Wind Speed 8 mph    
Max Gust Speed -    
Visibility 5 miles    
Events Fog , Rain    
Averages and records for this station are not official NWS values.
T = Trace of Precipitation, MM = Missing Value Source: NWS Daily Summary

Daily Weather History Graph

Daily Weather History Graph

Search for Another Location

Airport or City:

Trip Planner

Search our weather history database for the weather conditions in past years. The results will help you decide how hot, cold, wet, or windy it might be!

Date:

Astronomy

May. 30, 2012 Rise Set
Actual Time 5:04 AM EDT 8:18 PM EDT
Civil Twilight 4:29 AM EDT 8:53 PM EDT
Nautical Twilight 3:44 AM EDT 9:39 PM EDT
Astronomical Twilight 2:48 AM EDT 10:35 PM EDT
Moon 2:44 PM EDT (5/30) 1:39 AM EDT (5/30)
Length of Visible Light 16h 24m
Length of Day
15h 13m
Waxing Gibbous, 70% of the Moon is Illuminated
May 30
Waxing Gibbous
Jun 4
Full
Jun 11
Last Quarter
Jun 19
New
Jun 26
First Quarter

Hourly Weather History & Observations

Time (EDT) Temp. Dew Point Humidity Pressure Visibility Wind Dir Wind Speed Gust Speed Precip Events Conditions
12:15 AM 59.0 °F 59.0 °F 100% 29.73 in 10.0 mi SE 3.5 mph - 0.01 in   Overcast
12:54 AM 59.0 °F 59.0 °F 100% 29.73 in 10.0 mi SE 3.5 mph - 0.01 in   Overcast
1:29 AM 57.2 °F 57.2 °F 100% 29.73 in 5.0 mi SE 6.9 mph - N/A   Overcast
1:40 AM 57.2 °F 57.2 °F 100% 29.73 in 1.8 mi SE 6.9 mph - N/A   Overcast
1:52 AM 57.2 °F 57.2 °F 100% 29.72 in 1.0 mi ESE 8.1 mph - N/A   Mist
1:54 AM 57.0 °F 57.0 °F 100% 29.73 in 0.8 mi ESE 6.9 mph - N/A   Mist
2:16 AM 57.2 °F 57.2 °F 100% 29.72 in 1.0 mi SE 4.6 mph - N/A   Mist
2:54 AM 55.9 °F 55.9 °F 100% 29.70 in 1.2 mi ESE 5.8 mph - 0.00 in   Overcast
3:54 AM 55.9 °F 55.9 °F 100% 29.69 in 1.0 mi SE 6.9 mph - N/A   Mist
4:54 AM 55.9 °F 55.9 °F 100% 29.70 in 1.0 mi Calm Calm - N/A   Mist
5:39 AM 57.2 °F 55.4 °F 94% 29.70 in 0.8 mi Calm Calm - N/A   Mist
5:54 AM 57.0 °F 57.0 °F 100% 29.71 in 0.8 mi Calm Calm - N/A   Mist
6:54 AM 57.0 °F 57.0 °F 100% 29.72 in 0.5 mi Calm Calm - 0.00 in Fog Fog
7:45 AM 57.2 °F 57.2 °F 100% 29.73 in 1.0 mi Calm Calm - N/A   Mist
7:54 AM 57.9 °F 57.9 °F 100% 29.74 in 0.8 mi Calm Calm - N/A   Mist
8:01 AM 57.2 °F 57.2 °F 100% 29.73 in 1.5 mi Calm Calm - N/A   Overcast
8:17 AM 57.2 °F 57.2 °F 100% 29.73 in 1.0 mi Calm Calm - N/A   Overcast
8:24 AM 57.2 °F 57.2 °F 100% 29.73 in 0.8 mi Calm Calm - N/A   Overcast
8:54 AM 57.9 °F 57.9 °F 100% 29.73 in 0.5 mi Calm Calm - N/A Fog Fog
9:14 AM 57.2 °F 57.2 °F 100% 29.73 in 1.5 mi Calm Calm - N/A   Overcast
9:28 AM 59.0 °F 57.2 °F 94% 29.73 in 1.2 mi Calm Calm - N/A   Overcast
9:38 AM 59.0 °F 59.0 °F 100% 29.73 in 2.0 mi Calm Calm - N/A   Overcast
9:46 AM 60.8 °F 59.0 °F 94% 29.72 in 3.0 mi South 4.6 mph - N/A   Overcast
9:54 AM 61.0 °F 60.1 °F 97% 29.73 in 5.0 mi Calm Calm - N/A   Overcast
10:20 AM 62.6 °F 60.8 °F 94% 29.73 in 10.0 mi Calm Calm - 0.00 in Rain Light Rain
10:31 AM 64.4 °F 60.8 °F 88% 29.73 in 10.0 mi Calm Calm - 0.00 in   Overcast
10:54 AM 66.0 °F 61.0 °F 84% 29.73 in 10.0 mi Variable 3.5 mph - 0.00 in   Mostly Cloudy
11:13 AM 66.2 °F 60.8 °F 83% 29.73 in 10.0 mi Calm Calm - N/A   Scattered Clouds
11:54 AM 70.0 °F 63.0 °F 78% 29.72 in 10.0 mi SE 3.5 mph - N/A   Partly Cloudy
12:54 PM 73.9 °F 63.0 °F 68% 29.70 in 10.0 mi ESE 4.6 mph - N/A   Partly Cloudy
1:54 PM 75.9 °F 61.0 °F 60% 29.70 in 10.0 mi Calm Calm - N/A   Scattered Clouds
2:54 PM 77.0 °F 57.9 °F 52% 29.69 in 10.0 mi South 5.8 mph - N/A   Partly Cloudy
3:54 PM 77.0 °F 57.0 °F 50% 29.67 in 10.0 mi Variable 6.9 mph - N/A   Clear
4:54 PM 73.0 °F 57.0 °F 57% 29.68 in 10.0 mi SW 8.1 mph - 0.00 in Rain Light Rain
5:54 PM 70.0 °F 60.1 °F 71% 29.69 in 10.0 mi WSW 6.9 mph - 0.01 in   Overcast
6:54 PM 69.1 °F 61.0 °F 75% 29.70 in 10.0 mi SW 4.6 mph - N/A   Partly Cloudy
7:54 PM 66.0 °F 62.1 °F 87% 29.72 in 10.0 mi Calm Calm - N/A   Mostly Cloudy
8:54 PM 64.0 °F 62.1 °F 93% 29.71 in 10.0 mi Calm Calm - N/A   Mostly Cloudy
9:54 PM 64.0 °F 61.0 °F 90% 29.72 in 10.0 mi SW 3.5 mph - N/A   Overcast
10:54 PM 64.9 °F 61.0 °F 87% 29.71 in 10.0 mi SSW 4.6 mph - N/A   Overcast
11:54 PM 63.0 °F 61.0 °F 93% 29.71 in 10.0 mi Calm Calm - N/A   Mostly Cloudy